Location: Bergnershof
(48.9468°N, 10.9431°E)
Time: 00:01:40
(UTC+00:00)

Cosmos 2219 Rocket - Pass Details

Date: 03 March 2021
Orbit: 826 x 848 km, 71.0° (Epoch: 13 April)

Event Time Altitude Azimuth Distance (km) Brightness Sun altitude
Rises 19:24:29 0° 201° (SSW) 3,354 5.4 -23.8°
Reaches altitude 10° 19:26:54 10° 199° (SSW) 2,426 4.6 -24.1°
Maximum altitude 19:32:27 76° 115° (ESE) 860 2.0 -25.0°
Drops below altitude 10° 19:38:04 10° 31° (NNE) 2,454 4.5 -25.9°
Sets 19:40:31 0° 30° (NNE) 3,395 5.3 -26.2°
